Probability
35 35 39 48 52 58 65 74 68 68 68 68 61 65 61 61 58 55 58 52 45 39 19 19 16 23 23 16 13 13 10 13 13 13 13 16 10 6 3 3 3 0 0
35 35 39 52 55 52 58 61 68 71 68 61 55 52 52 58 61 52 52 39 42 45 35 29 19 19 16 13 10 10 13 13 10 10 3 6 6 6 3 3 0 3 0
35 32 42 52 52 55 55 55 52 61 58 55 58 48 52 55 52 48 55 39 42 42 39 32 29 23 23 19 19 16 13 13 6 6 3 3 3 6 0 0 0 3 0
32 35 32 52 52 55 55 55 52 48 55 58 58 58 61 52 55 52 45 45 45 39 35 32 32 29 26 23 16 13 13 13 10 6 0 0 0 3 0 0 0 0 0
35 29 32 48 52 52 52 55 48 45 45 45 52 48 52 45 55 48 45 48 48 42 48 35 29 32 26 16 13 16 13 13 6 0 0 0 0 0 3 0 0 0 0
29 39 35 42 45 48 52 52 48 52 48 45 42 39 42 45 45 42 48 55 55 61 48 32 32 23 23 16 10 13 16 16 6 3 0 0 0 3 3 3 3 0 0
23 29 35 42 42 42 45 48 45 48 48 52 48 42 39 39 32 35 45 45 48 48 55 32 32 29 23 16 10 6 13 13 6 3 0 0 0 3 3 3 3 0 0
23 23 23 29 32 35 42 39 45 42 35 39 39 39 39 35 29 32 35 42 42 42 45 32 35 26 23 16 16 10 6 0 0 0 0 0 0 3 6 3 3 3 0
16 16 16 19 23 23 23 23 35 39 39 42 39 45 39 35 32 29 32 32 29 35 39 42 32 29 23 19 16 10 3 0 0 0 0 0 0 3 6 3 3 3 0
13 16 16 16 16 16 16 16 23 16 23 29 29 26 16 13 19 26 19 23 29 29 39 32 26 26 13 16 16 3 0 0 0 0 0 0 0 0 3 3 3 0 0
10 10 13 16 16 13 10 10 13 10 6 10 6 3 3 23 19 16 6 6 16 23 19 29 23 19 6 3 3 0 0 0 0 0 0 0 0 0 0 3 3 0 0
10 10 10 10 13 10 13 13 13 10 6 10 6 6 16 19 23 6 6 0 3 3 0 16 19 6 6 0 0 0 0 3 0 0 0 0 0 0 0 3 3 3 3
6 6 6 10 10 10 10 13 13 13 13 6 10 10 10 13 16 19 19 6 6 0 13 6 10 10 10 10 10 0 0 0 0 0 0 0 0 0 0 3 3 3 3
6 6 6 6 6 6 3 3 10 10 13 10 6 10 6 6 10 16 16 19 23 23 23 19 23 10 6 6 6 3 0 3 3 0 0 0 0 0 0 6 6 6 3
3 3 6 6 6 6 6 6 3 6 10 3 3 0 6 6 6 6 10 16 19 19 19 19 13 10 6 6 0 0 0 0 0 0 0 0 0 0 0 0 6 6 6
3 3 3 3 3 3 6 6 3 3 0 0 0 0 0 0 6 6 6 13 10 13 16 13 10 10 6 0 0 0 0 0 0 0 0 0 0 0 0 0 0 3 6
0 3 3 3 3 3 3 3 3 0 0 0 0 0 0 0 0 0 6 6 10 10 10 10 3 3 3 0 0 0 0 0 0 0 0 0 0 0 0 0 0 3 3
0 0 3 3 0 0 0 0 0 0 0 0 0 0 0 0 0 0 0 3 3 6 6 6 6 0 0 0 0 0 0 0 0 0 0 0 0 0 0 0 0 3 3
0 0 0 0 0 0 0 0 0 0 0 0 0 0 0 0 0 0 0 0 0 3 10 3 3 0 0 0 0 0 0 0 0 0 0 0 0 0 0 0 0 0 0
0 0 0 0 0 0 0 0 0 0 0 0 0 0 0 0 0 0 0 0 0 0 0 3 3 3 0 0 0 0 0 0 0 0 0 0 0 0 0 0 0 0 0
0 0 0 0 0 0 0 0 0 0 0 0 0 0 0 0 0 0 0 0 0 0 0 0 0 0 0 0 0 0 0 0 0 0 0 0 0 0 0 0 0 0 0
0 0 0 0 0 0 0 0 0 0 0 0 0 0 0 0 0 0 0 0 0 0 0 0 0 0 0 0 0 0 0 0 0 0 0 0 0 0 0 0 0 0 0
0 0 0 0 0 0 0 0 0 0 0 0 0 0 0 0 0 0 0 0 0 0 0 0 0 0 0 0 0 0 0 0 0 0 0 0 0 0 0 0 0 0 0
0 0 0 0 0 0 0 0 0 0 0 0 0 0 0 0 0 0 0 0 0 0 0 0 0 0 0 0 0 0 0 0 0 0 0 0 0 0 0 0 0 0 0
0 0 0 0 0 0 0 0 0 0 0 0 0 0 0 0 0 0 0 0 0 0 0 0 0 0 0 0 0 0 0 0 0 0 0 0 0 0 0 0 0 0 0
0 0 0 0 0 0 0 0 0 0 0 0 0 0 0 0 0 0 0 0 0 0 0 0 0 0 0 0 0 0 0 0 0 0 0 0 0 0 0 0 0 0 0
Height
5872 5873 5874 5875 5876 5876 5877 5878 5878 5879 5879 5880 5880 5880 5881 5881 5881 5881 5881 5880 5880 5880 5880 5880 5880 5880 5879 5879 5879 5879 5879 5879 5878 5878 5878 5878 5877 5877 5877 5876 5876 5875 5875
5869 5870 5871 5872 5873 5874 5875 5875 5876 5877 5877 5878 5878 5878 5879 5879 5879 5879 5879 5879 5879 5879 5879 5879 5878 5878 5878 5878 5878 5877 5877 5877 5877 5877 5876 5876 5876 5876 5875 5875 5874 5874 5873
5866 5867 5868 5869 5870 5871 5872 5873 5873 5874 5875 5875 5876 5876 5876 5877 5877 5877 5877 5877 5877 5877 5877 5877 5877 5877 5876 5876 5876 5876 5875 5875 5875 5875 5874 5874 5874 5874 5873 5873 5872 5872 5871
5862 5863 5865 5866 5867 5868 5869 5870 5870 5871 5872 5872 5873 5873 5874 5874 5874 5875 5875 5875 5875 5875 5875 5875 5875 5875 5874 5874 5874 5874 5873 5873 5873 5872 5872 5872 5872 5871 5871 5871 5870 5870 5869
5858 5860 5861 5862 5863 5864 5865 5866 5867 5868 5869 5869 5870 5870 5871 5871 5871 5872 5872 5872 5872 5872 5872 5872 5872 5872 5872 5872 5872 5871 5871 5871 5870 5870 5870 5869 5869 5869 5869 5868 5868 5868 5867
5854 5856 5857 5858 5860 5861 5862 5863 5863 5864 5865 5866 5866 5867 5867 5868 5868 5869 5869 5869 5869 5869 5869 5869 5869 5869 5869 5869 5869 5868 5868 5868 5867 5867 5867 5867 5866 5866 5866 5866 5865 5865 5864
5850 5851 5853 5854 5855 5856 5857 5858 5859 5860 5861 5862 5862 5863 5863 5864 5864 5865 5865 5865 5866 5866 5866 5866 5866 5866 5866 5866 5866 5865 5865 5865 5864 5864 5864 5864 5864 5863 5863 5863 5862 5862 5861
5845 5846 5848 5849 5850 5851 5852 5853 5855 5855 5856 5857 5858 5858 5859 5859 5860 5860 5861 5861 5861 5862 5862 5862 5862 5862 5862 5862 5862 5862 5861 5861 5861 5861 5860 5860 5860 5860 5859 5859 5859 5858 5858
5839 5841 5842 5844 5845 5846 5847 5848 5849 5850 5851 5851 5852 5853 5853 5854 5854 5855 5855 5856 5856 5857 5857 5857 5857 5857 5857 5857 5857 5857 5857 5857 5857 5856 5856 5856 5856 5856 5856 5855 5855 5854 5854
5834 5836 5837 5838 5839 5840 5841 5842 5843 5844 5845 5846 5846 5847 5848 5848 5848 5849 5850 5850 5851 5851 5851 5852 5852 5852 5852 5852 5852 5852 5852 5852 5852 5852 5852 5852 5852 5852 5851 5851 5851 5850 5850
5828 5830 5831 5832 5833 5834 5835 5836 5837 5838 5838 5839 5840 5840 5841 5842 5842 5843 5843 5844 5844 5845 5845 5846 5846 5847 5846 5847 5847 5847 5847 5847 5847 5847 5847 5847 5847 5847 5847 5846 5846 5846 5845
5822 5823 5824 5826 5827 5828 5829 5829 5830 5831 5832 5832 5833 5833 5834 5834 5835 5836 5836 5837 5838 5838 5838 5839 5839 5840 5840 5840 5840 5840 5841 5841 5841 5841 5841 5841 5841 5841 5841 5841 5841 5840 5840
5815 5816 5818 5819 5820 5821 5822 5822 5823 5824 5824 5825 5825 5826 5826 5827 5828 5828 5829 5830 5830 5830 5831 5831 5832 5832 5833 5833 5834 5834 5834 5834 5834 5835 5835 5835 5835 5835 5835 5835 5835 5835 5835
5808 5809 5810 5811 5813 5813 5814 5815 5815 5816 5817 5817 5818 5818 5818 5819 5820 5820 5821 5821 5822 5822 5823 5823 5824 5824 5825 5826 5826 5827 5827 5827 5827 5828 5828 5828 5828 5828 5828 5828 5828 5829 5828
5801 5802 5803 5804 5805 5806 5806 5807 5807 5808 5808 5809 5809 5810 5810 5811 5811 5811 5812 5812 5813 5813 5814 5815 5815 5816 5816 5817 5817 5818 5819 5819 5819 5820 5820 5821 5821 5821 5821 5822 5822 5822 5822
5793 5794 5796 5797 5797 5798 5798 5799 5799 5800 5800 5800 5800 5800 5801 5801 5802 5802 5802 5803 5803 5804 5804 5805 5805 5806 5806 5807 5808 5809 5810 5810 5811 5811 5812 5812 5813 5813 5814 5814 5814 5814 5814
5786 5787 5788 5789 5789 5790 5790 5791 5791 5791 5791 5791 5791 5791 5791 5791 5792 5792 5792 5793 5793 5794 5794 5795 5795 5796 5796 5797 5798 5798 5799 5800 5801 5802 5802 5803 5803 5804 5805 5805 5806 5806 5806
5778 5779 5780 5781 5782 5782 5782 5783 5783 5783 5782 5782 5782 5782 5782 5782 5782 5782 5782 5782 5782 5783 5784 5785 5785 5786 5786 5786 5787 5787 5788 5790 5791 5792 5792 5793 5794 5795 5795 5796 5797 5797 5797
5771 5772 5772 5773 5773 5774 5774 5774 5774 5774 5773 5773 5773 5773 5772 5772 5772 5771 5771 5772 5772 5772 5773 5774 5775 5775 5775 5775 5776 5777 5778 5779 5780 5781 5782 5783 5784 5785 5785 5786 5787 5787 5788
5763 5764 5764 5765 5765 5765 5765 5765 5765 5765 5764 5764 5763 5763 5762 5762 5761 5761 5761 5761 5761 5762 5763 5763 5763 5764 5765 5765 5765 5766 5767 5768 5768 5769 5771 5772 5773 5774 5775 5776 5776 5777 5777
5756 5756 5756 5756 5757 5757 5757 5757 5756 5756 5755 5755 5754 5753 5752 5751 5751 5750 5751 5751 5751 5751 5752 5752 5752 5753 5753 5754 5754 5755 5756 5756 5757 5757 5758 5760 5762 5763 5763 5765 5766 5766 5767
5748 5748 5748 5748 5748 5748 5748 5748 5747 5747 5747 5746 5745 5744 5743 5742 5741 5740 5740 5740 5740 5740 5740 5741 5741 5741 5742 5742 5742 5743 5744 5745 5745 5746 5746 5748 5749 5750 5752 5753 5753 5754 5755
5740 5740 5740 5740 5740 5740 5739 5739 5739 5738 5738 5737 5736 5735 5733 5732 5730 5729 5729 5729 5729 5728 5729 5729 5729 5729 5730 5730 5730 5730 5731 5733 5734 5734 5734 5735 5736 5738 5739 5740 5741 5742 5742
5732 5732 5732 5732 5732 5731 5731 5730 5730 5730 5729 5728 5727 5725 5724 5722 5720 5719 5718 5717 5717 5717 5717 5717 5717 5717 5717 5718 5718 5718 5718 5719 5720 5722 5722 5722 5723 5724 5726 5727 5728 5729 5729
5725 5725 5724 5724 5723 5723 5722 5722 5721 5720 5720 5719 5717 5716 5714 5712 5710 5709 5707 5706 5705 5705 5704 5704 5704 5705 5705 5705 5705 5705 5705 5706 5706 5708 5710 5710 5710 5712 5713 5714 5715 5716 5716
5717 5717 5716 5716 5715 5715 5714 5713 5712 5712 5711 5710 5708 5706 5704 5702 5700 5698 5696 5695 5694 5693 5692 5692 5692 5693 5693 5693 5693 5693 5694 5694 5694 5695 5696 5698 5698 5699 5699 5700 5701 5702 5703
Wind_Speed
17 16 16 15 15 14 14 13 12 12 12 12 11 10 10 9 9 8 7 7 7 6 6 6 6 6 5 5 5 6 6 6 6 6 7 7 7 7 7 7 7 7 7
19 18 18 17 16 16 16 15 14 14 13 13 13 12 12 11 10 10 9 9 9 8 8 8 7 7 7 7 7 7 7 8 8 8 8 8 8 8 8 8 8 8 8
20 19 19 18 18 17 17 17 16 16 15 15 14 14 14 13 13 12 12 11 11 10 10 10 9 9 9 9 9 9 9 9 9 9 9 9 10 9 9 9 9 9 10
21 20 20 19 19 18 18 18 18 17 17 17 16 16 16 15 15 14 14 14 13 13 12 12 12 12 11 11 11 11 11 11 11 11 10 11 11 11 11 11 11 11 11
22 22 21 21 21 20 20 20 19 19 19 19 19 18 18 17 17 17 16 16 16 15 15 14 14 14 14 13 13 13 12 13 13 12 12 12 12 13 13 12 12 12 12
24 23 23 23 23 23 22 22 22 22 21 21 21 21 20 20 20 19 19 18 18 18 17 17 17 16 16 16 16 15 15 15 15 15 14 14 14 14 14 14 14 14 14
25 25 25 24 25 25 24 24 24 24 23 23 23 23 23 22 22 22 21 21 21 20 20 20 20 19 19 18 18 18 18 18 17 17 17 17 16 16 16 16 16 16 16
26 26 26 26 26 27 27 26 26 26 25 25 25 25 25 25 24 24 24 23 23 23 23 22 22 22 22 21 21 20 20 21 20 20 19 19 19 18 18 18 18 18 18
27 27 28 28 28 28 28 28 28 28 28 28 28 28 28 27 27 27 27 26 26 25 25 25 25 25 24 24 24 23 22 22 22 22 22 21 21 20 20 20 20 20 20
29 29 29 29 30 29 29 29 30 30 30 30 30 30 30 30 30 29 29 29 29 29 28 28 28 28 27 27 26 26 25 25 24 24 24 24 23 23 22 22 22 21 22
32 31 31 31 31 31 31 31 31 31 31 31 31 31 31 32 31 31 31 31 31 31 31 31 31 31 30 30 29 29 28 27 27 27 26 26 26 25 25 24 24 24 23
33 33 33 32 32 32 32 32 32 32 32 32 33 33 33 34 34 34 33 33 33 33 33 33 33 33 33 32 32 32 31 30 30 30 29 28 28 27 27 27 26 26 25
34 34 34 33 33 33 33 34 34 34 34 34 35 35 35 35 35 35 35 35 35 35 36 36 35 35 35 35 35 34 34 33 33 32 32 31 31 30 30 29 29 28 27
35 35 35 36 35 35 35 35 35 36 36 37 37 37 37 37 37 37 37 37 37 38 38 38 38 38 38 37 37 37 37 37 36 36 35 34 33 33 32 31 31 30 30
36 36 37 37 37 37 37 37 37 37 38 38 39 40 40 39 39 40 40 40 40 40 40 41 41 41 41 41 40 40 40 40 39 39 38 38 37 36 35 35 34 33 32
37 37 37 37 37 37 38 38 37 37 38 39 40 41 41 42 42 43 43 43 43 43 43 43 43 43 43 44 44 43 43 42 42 42 41 41 41 40 39 38 37 36 35
36 37 37 37 37 37 36 37 37 38 38 39 39 40 41 42 43 43 44 44 44 44 44 43 44 44 44 45 45 46 46 45 45 44 44 44 43 42 42 41 40 40 39
36 36 36 37 37 37 37 37 37 38 39 39 39 40 41 41 42 42 43 43 44 44 44 44 44 45 45 46 46 47 47 47 47 47 46 46 45 44 44 43 42 42 41
35 36 36 36 37 37 37 37 37 38 38 39 40 40 41 42 42 43 43 43 43 43 44 44 45 45 45 45 45 45 46 47 48 48 48 48 47 47 46 45 45 45 44
35 36 36 36 36 36 36 37 37 38 39 40 40 41 42 43 43 43 42 42 42 43 43 44 45 46 46 46 45 45 46 47 49 50 50 49 49 48 48 48 47 47 47
34 35 36 37 37 37 37 37 38 38 38 38 39 39 40 42 42 42 42 43 43 44 44 45 45 46 46 47 47 47 47 48 48 50 51 51 50 50 49 49 49 49 48
34 35 35 36 37 37 37 37 37 37 37 37 37 38 39 40 41 42 43 44 45 45 45 46 47 47 47 47 47 48 48 49 49 51 52 53 52 52 51 50 50 51 51
34 34 34 35 36 37 37 36 37 37 36 36 37 38 38 39 39 40 42 44 45 46 46 46 47 48 49 49 49 50 50 50 50 51 52 53 54 53 53 51 50 50 51
34 34 34 35 35 35 36 36 36 36 37 37 38 38 38 39 40 40 41 43 45 46 47 48 48 48 48 49 50 50 50 50 50 50 51 52 54 54 54 54 53 52 52
34 34 34 34 34 35 35 35 36 36 36 37 37 37 38 38 39 40 41 43 44 45 46 47 47 48 48 48 49 49 49 50 50 50 50 52 53 54 54 54 54 53 52
33 33 33 33 33 34 34 35 35 35 35 36 37 37 37 38 38 39 41 41 42 43 44 45 46 46 47 47 47 48 48 49 50 50 50 51 52 53 55 55 54 54 54
Wind_Direction
242 243 243 243 243 243 244 245 246 247 247 247 248 249 250 251 250 250 248 244 241 241 241 240 240 244 252 257 259 258 260 262 264 265 269 274 279 285 289 290 291 292 295
244 245 244 243 243 244 245 247 249 249 251 249 249 251 252 252 253 254 253 253 251 249 249 248 247 249 254 257 259 262 262 262 263 265 268 270 274 280 285 288 288 290 289
244 245 245 245 245 245 247 248 250 250 252 252 252 253 254 255 256 256 256 256 256 257 256 256 256 256 257 259 260 264 266 265 264 265 266 267 271 276 280 284 286 288 288
244 244 245 246 247 247 248 248 250 251 253 255 255 255 256 256 257 258 259 259 260 260 260 260 261 261 261 261 262 264 268 267 265 265 266 268 269 271 275 279 282 286 287
244 245 246 247 249 250 250 250 251 252 254 255 257 258 259 259 259 259 259 260 261 262 262 261 262 263 263 264 264 266 268 268 265 265 266 269 271 271 273 276 278 282 284
245 246 247 249 251 253 253 253 254 255 255 256 258 260 261 261 261 262 262 261 261 262 262 262 262 264 265 265 266 267 269 269 266 266 267 269 272 273 273 274 276 278 280
246 248 249 250 252 254 255 256 257 257 258 258 259 261 262 262 263 263 263 263 263 262 263 263 263 264 265 265 267 268 269 269 267 266 267 269 272 273 273 273 274 275 277
247 248 250 252 253 255 256 257 258 259 260 260 260 261 262 263 263 263 263 263 264 264 264 264 265 265 266 266 268 269 270 269 267 267 267 269 271 273 274 273 273 273 274
248 250 252 254 255 257 258 259 260 261 261 262 263 263 263 263 263 263 262 262 263 263 264 265 265 266 266 266 267 268 269 270 269 269 269 270 271 272 274 274 273 273 274
251 252 254 256 257 258 259 260 261 262 262 262 263 263 263 263 263 263 263 262 262 263 263 264 264 265 266 266 267 267 269 269 269 269 269 270 271 271 272 273 273 274 274
252 254 255 256 257 258 259 260 261 262 263 263 263 263 263 263 263 264 263 263 263 263 263 263 264 264 265 266 267 267 268 268 268 268 269 270 271 272 272 272 272 273 273
253 255 256 256 257 258 259 259 260 262 263 264 264 264 264 264 264 264 264 264 264 264 264 264 264 264 264 265 266 266 267 267 267 267 268 269 270 271 272 272 271 272 272
254 255 256 257 258 259 260 260 261 262 262 263 264 266 265 265 265 265 264 264 264 264 264 264 265 265 265 265 264 265 265 267 267 267 267 268 269 269 270 270 270 270 271
254 255 257 258 259 260 261 261 262 263 263 263 264 265 265 266 266 266 266 265 265 265 265 265 265 265 265 265 265 264 265 265 266 266 267 267 269 269 268 269 269 270 270
254 256 257 259 260 260 261 262 263 264 264 264 264 264 264 265 266 266 267 267 266 266 266 265 265 265 265 265 265 265 264 264 264 265 266 267 267 268 267 268 269 269 269
254 256 257 259 260 261 262 263 264 264 265 265 265 266 266 266 267 267 267 267 266 267 266 266 266 266 265 265 264 264 263 264 264 264 265 265 265 266 266 267 268 268 269
255 256 258 259 260 261 262 264 265 266 266 267 267 267 267 268 268 268 267 267 266 266 266 266 266 266 266 265 264 263 263 263 263 263 264 264 264 265 266 267 267 267 268
256 257 258 259 260 262 263 265 266 267 268 268 268 268 269 270 270 270 268 267 267 266 266 266 266 266 266 266 265 263 262 262 262 262 262 263 264 264 265 266 266 266 266
256 258 259 260 261 263 264 266 267 268 268 269 269 270 270 270 270 270 269 268 267 266 265 265 265 265 266 266 265 265 264 263 262 262 262 262 263 263 264 265 265 265 266
258 260 261 262 263 263 265 267 268 269 269 270 270 270 270 270 270 269 269 268 268 267 266 265 265 264 265 266 266 266 266 265 263 262 262 262 262 263 263 264 265 266 266
260 261 263 263 264 264 266 268 269 269 269 269 270 271 270 270 269 268 268 268 267 268 268 267 267 266 265 266 266 266 266 265 264 263 261 262 261 261 263 263 264 265 266
261 263 264 264 265 266 268 269 269 268 268 269 270 272 272 272 270 268 268 267 267 268 268 268 268 266 266 266 266 266 266 265 265 265 263 262 262 262 263 263 264 265 265
261 263 265 265 266 267 268 268 268 267 268 270 271 272 273 272 272 271 269 268 267 268 268 269 268 268 266 266 266 266 266 266 266 266 265 263 262 262 262 263 264 264 265
261 264 265 266 267 268 268 268 269 269 270 271 272 273 274 274 273 272 271 270 269 269 268 268 268 268 267 267 267 267 267 267 266 265 265 264 263 263 262 262 262 263 263
263 264 266 267 268 268 269 269 269 270 272 272 274 274 275 275 275 274 274 273 271 270 269 268 268 268 268 268 267 267 268 267 267 267 266 265 264 263 263 262 262 262 262
263 264 266 267 268 268 269 270 270 270 272 273 274 275 276 276 277 276 276 276 275 273 270 269 268 268 267 268 267 267 269 269 268 268 268 265 264 263 263 263 262 261 262